Fisktrans — LIAB — position and weather

sailwx.info

Track history (hours):
 
Tides and Currents Weather Stations Pressure Air Temp Water Temp Dewpoint Dewpoint Depression Visibility Wind Speed Wind Dir Waves Ship Positions

Fisktrans

Last reported at 2014-Nov-23 17:31 UTC. Time now 2014-Nov-23 22:27 UTC.
Position N 67°39' E 014°31'.

Length 58 m.

Type: Cargo ship. MMSI: 258034000.

Date/timePositionNaut miles runAvg speedWind from/ knotsBaromVisibWave heightAir tempDewpointWater temp
2014-Nov-23 17:31N 67°39' E 014°31'1010.2
2014-Nov-23 16:33N 67°29' E 014°29'1010.1
2014-Nov-23 15:33N 67°19' E 014°23'2 2.1
2014-Nov-23 14:33N 67°17' E 014°23'0 0.0
2014-Nov-23 13:33N 67°17' E 014°23'0 0.0
2014-Nov-23 12:34N 67°17' E 014°23'0 0.0
2014-Nov-23 11:34N 67°17' E 014°23'0 0.0
2014-Nov-23 10:33N 67°17' E 014°23'0 0.0
2014-Nov-23 09:33N 67°17' E 014°23'0 0.3
2014-Nov-23 08:34N 67°17' E 014°23'0 0.1
2014-Nov-23 07:33N 67°17' E 014°23'10 8.6
2014-Nov-23 06:25N 67°10' E 014°05'40 9.3
2014-Nov-23 02:10N 66°42' E 012°54'8 9.6
2014-Nov-23 01:19N 66°39' E 012°35'810.0
2014-Nov-23 00:31N 66°34' E 012°20'7 7.2
2014-Nov-22 23:33N 66°30' E 012°06'1 0.1
2014-Nov-22 19:10N 66°30' E 012°06'1 1.6
2014-Nov-22 18:33N 66°29' E 012°05'7 7.0
2014-Nov-22 17:33N 66°33' E 012°20'59 2.2
2014-Nov-21 15:12N 67°19' E 013°56'710.1
2014-Nov-21 14:34N 67°17' E 014°12'4 4.4
2014-Nov-21 13:33N 67°17' E 014°23'0 0.0
2014-Nov-21 12:33N 67°17' E 014°23'0 0.0
2014-Nov-21 11:34N 67°17' E 014°23'0 0.0
2014-Nov-21 10:34N 67°17' E 014°23'0 0.0
2014-Nov-21 09:33N 67°17' E 014°23'0 0.0
2014-Nov-21 08:33N 67°17' E 014°23'0 0.0
2014-Nov-21 07:34N 67°17' E 014°23'0 0.0
2014-Nov-21 06:34N 67°17' E 014°23'0 0.0
2014-Nov-21 05:34N 67°17' E 014°23'1 0.9
2014-Nov-21 04:34N 67°17' E 014°21'10 9.9
2014-Nov-21 03:32N 67°09' E 014°03'1310.1
2014-Nov-21 02:17N 67°00' E 013°40'34 8.4
2014-Nov-20 22:17N 66°39' E 012°34'6 8.1
2014-Nov-20 21:33N 66°35' E 012°23'8 8.5
2014-Nov-20 20:33N 66°29' E 012°08'2 0.1
2014-Nov-20 08:33N 66°30' E 012°06'  
2014-Nov-17 08:04N 66°28' E 011°47'5 9.7
2014-Nov-17 07:32N 66°32' E 011°54'9510.3
2014-Nov-16 22:20N 67°48' E 014°22'147 9.3
2014-Nov-16 06:32N 69°37' E 018°54'1 1.3
2014-Nov-16 05:27N 69°38' E 018°57'0 0.0
2014-Nov-16 04:33N 69°38' E 018°57'0 0.0
2014-Nov-16 03:34N 69°38' E 018°57'0 0.0
2014-Nov-16 02:33N 69°38' E 018°57'0 0.0
2014-Nov-16 01:33N 69°38' E 018°57'2 2.1
2014-Nov-16 00:34N 69°40' E 018°59'1 1.0
2014-Nov-15 23:33N 69°41' E 018°59'0 0.0
2014-Nov-15 22:33N 69°41' E 018°59'0 0.0
2014-Nov-15 21:33N 69°41' E 018°59'0 0.0
2014-Nov-15 20:33N 69°41' E 018°59'0 0.0
2014-Nov-15 19:33N 69°41' E 018°59'0 0.0
2014-Nov-15 18:33N 69°41' E 018°59'0 0.0
2014-Nov-15 17:29N 69°41' E 018°59'0 0.0
2014-Nov-15 16:33N 69°41' E 018°59'0 0.0
2014-Nov-15 15:34N 69°41' E 018°59'0 0.0
2014-Nov-15 14:34N 69°41' E 018°59'0 0.0
2014-Nov-15 13:33N 69°41' E 018°59'0 0.0
2014-Nov-15 12:33N 69°41' E 018°59'0 0.0
2014-Nov-15 11:33N 69°41' E 018°59'0 0.0
2014-Nov-15 10:33N 69°41' E 018°59'0 0.0
2014-Nov-15 09:34N 69°41' E 018°59'0 0.0
2014-Nov-15 08:33N 69°41' E 018°59'0 0.0
2014-Nov-15 07:34N 69°41' E 018°59'0 0.0
2014-Nov-15 06:33N 69°41' E 018°59'0 0.0
2014-Nov-15 05:33N 69°41' E 018°59'0 0.0
2014-Nov-15 04:33N 69°41' E 018°59'0 0.0
2014-Nov-15 03:34N 69°41' E 018°59'0 0.0
2014-Nov-15 02:33N 69°41' E 018°59'0 0.0
2014-Nov-15 01:33N 69°41' E 018°59'0 0.0
2014-Nov-15 00:33N 69°41' E 018°59'0 0.0
2014-Nov-14 23:33N 69°41' E 018°59'0 0.0
2014-Nov-14 22:33N 69°41' E 018°59'0 0.0
2014-Nov-14 21:33N 69°41' E 018°59'0 0.0
2014-Nov-14 20:33N 69°41' E 018°59'1 0.5
2014-Nov-14 19:33N 69°40' E 018°60'3 2.6
2014-Nov-14 18:34N 69°38' E 018°57'0 0.0
2014-Nov-14 17:33N 69°38' E 018°57'0 0.0
2014-Nov-14 16:33N 69°38' E 018°57'0 0.0
2014-Nov-14 15:33N 69°38' E 018°57'3 2.6
2014-Nov-14 14:33N 69°40' E 018°59'0 0.1
2014-Nov-14 11:08N 69°41' E 018°59'0 0.0
2014-Nov-14 10:14N 69°41' E 018°59'0 0.0
2014-Nov-14 09:30N 69°41' E 018°59'0 0.0
2014-Nov-14 08:32N 69°41' E 018°59'0 0.0
2014-Nov-14 07:33N 69°41' E 018°59'0 0.0
2014-Nov-14 06:33N 69°41' E 018°59'0 0.0
2014-Nov-14 05:28N 69°41' E 018°59'0 0.0
2014-Nov-14 04:33N 69°41' E 018°59'0 0.0
2014-Nov-14 03:33N 69°41' E 018°59'0 0.0
2014-Nov-14 02:33N 69°41' E 018°59'0 0.0
2014-Nov-14 01:33N 69°41' E 018°59'0 0.0
2014-Nov-14 00:33N 69°41' E 018°59'0 0.0
2014-Nov-13 23:33N 69°41' E 018°59'0 0.0
2014-Nov-13 22:33N 69°41' E 018°59'0 0.0
2014-Nov-13 21:33N 69°41' E 018°59'0 0.0
2014-Nov-13 20:33N 69°41' E 018°59'0 0.0
2014-Nov-13 19:33N 69°41' E 018°59'0 0.0
2014-Nov-13 18:33N 69°41' E 018°59'0 0.0
2014-Nov-13 17:32N 69°41' E 018°59'  
Track history (hours):
 
Tides and Currents Weather Stations Pressure Air Temp Water Temp Dewpoint Dewpoint Depression Visibility Wind Speed Wind Dir Waves Ship Positions

Fisktrans

Last reported at 2014-Nov-23 17:31 UTC. Time now 2014-Nov-23 22:27 UTC.
Position N 67°39' E 014°31'.

Length 58 m.

Type: Cargo ship. MMSI: 258034000.

Date/timePositionNaut miles runAvg speedWind from/ knotsBaromVisibWave heightAir tempDewpointWater temp
2014-Nov-23 17:31N 67°39' E 014°31'1010.2
2014-Nov-23 16:33N 67°29' E 014°29'1010.1
2014-Nov-23 15:33N 67°19' E 014°23'2 2.1
2014-Nov-23 14:33N 67°17' E 014°23'0 0.0
2014-Nov-23 13:33N 67°17' E 014°23'0 0.0
2014-Nov-23 12:34N 67°17' E 014°23'0 0.0
2014-Nov-23 11:34N 67°17' E 014°23'0 0.0
2014-Nov-23 10:33N 67°17' E 014°23'0 0.0
2014-Nov-23 09:33N 67°17' E 014°23'0 0.3
2014-Nov-23 08:34N 67°17' E 014°23'0 0.1
2014-Nov-23 07:33N 67°17' E 014°23'10 8.6
2014-Nov-23 06:25N 67°10' E 014°05'40 9.3
2014-Nov-23 02:10N 66°42' E 012°54'8 9.6
2014-Nov-23 01:19N 66°39' E 012°35'810.0
2014-Nov-23 00:31N 66°34' E 012°20'7 7.2
2014-Nov-22 23:33N 66°30' E 012°06'1 0.1
2014-Nov-22 19:10N 66°30' E 012°06'1 1.6
2014-Nov-22 18:33N 66°29' E 012°05'7 7.0
2014-Nov-22 17:33N 66°33' E 012°20'59 2.2
2014-Nov-21 15:12N 67°19' E 013°56'710.1
2014-Nov-21 14:34N 67°17' E 014°12'4 4.4
2014-Nov-21 13:33N 67°17' E 014°23'0 0.0
2014-Nov-21 12:33N 67°17' E 014°23'0 0.0
2014-Nov-21 11:34N 67°17' E 014°23'0 0.0
2014-Nov-21 10:34N 67°17' E 014°23'0 0.0
2014-Nov-21 09:33N 67°17' E 014°23'0 0.0
2014-Nov-21 08:33N 67°17' E 014°23'0 0.0
2014-Nov-21 07:34N 67°17' E 014°23'0 0.0
2014-Nov-21 06:34N 67°17' E 014°23'0 0.0
2014-Nov-21 05:34N 67°17' E 014°23'1 0.9
2014-Nov-21 04:34N 67°17' E 014°21'10 9.9
2014-Nov-21 03:32N 67°09' E 014°03'1310.1
2014-Nov-21 02:17N 67°00' E 013°40'34 8.4
2014-Nov-20 22:17N 66°39' E 012°34'6 8.1
2014-Nov-20 21:33N 66°35' E 012°23'8 8.5
2014-Nov-20 20:33N 66°29' E 012°08'2 0.1
2014-Nov-20 08:33N 66°30' E 012°06'  
2014-Nov-17 08:04N 66°28' E 011°47'5 9.7
2014-Nov-17 07:32N 66°32' E 011°54'9510.3
2014-Nov-16 22:20N 67°48' E 014°22'147 9.3
2014-Nov-16 06:32N 69°37' E 018°54'1 1.3
2014-Nov-16 05:27N 69°38' E 018°57'0 0.0
2014-Nov-16 04:33N 69°38' E 018°57'0 0.0
2014-Nov-16 03:34N 69°38' E 018°57'0 0.0
2014-Nov-16 02:33N 69°38' E 018°57'0 0.0
2014-Nov-16 01:33N 69°38' E 018°57'2 2.1
2014-Nov-16 00:34N 69°40' E 018°59'1 1.0
2014-Nov-15 23:33N 69°41' E 018°59'0 0.0
2014-Nov-15 22:33N 69°41' E 018°59'0 0.0
2014-Nov-15 21:33N 69°41' E 018°59'0 0.0
2014-Nov-15 20:33N 69°41' E 018°59'0 0.0
2014-Nov-15 19:33N 69°41' E 018°59'0 0.0
2014-Nov-15 18:33N 69°41' E 018°59'0 0.0
2014-Nov-15 17:29N 69°41' E 018°59'0 0.0
2014-Nov-15 16:33N 69°41' E 018°59'0 0.0
2014-Nov-15 15:34N 69°41' E 018°59'0 0.0
2014-Nov-15 14:34N 69°41' E 018°59'0 0.0
2014-Nov-15 13:33N 69°41' E 018°59'0 0.0
2014-Nov-15 12:33N 69°41' E 018°59'0 0.0
2014-Nov-15 11:33N 69°41' E 018°59'0 0.0
2014-Nov-15 10:33N 69°41' E 018°59'0 0.0
2014-Nov-15 09:34N 69°41' E 018°59'0 0.0
2014-Nov-15 08:33N 69°41' E 018°59'0 0.0
2014-Nov-15 07:34N 69°41' E 018°59'0 0.0
2014-Nov-15 06:33N 69°41' E 018°59'0 0.0
2014-Nov-15 05:33N 69°41' E 018°59'0 0.0
2014-Nov-15 04:33N 69°41' E 018°59'0 0.0
2014-Nov-15 03:34N 69°41' E 018°59'0 0.0
2014-Nov-15 02:33N 69°41' E 018°59'0 0.0
2014-Nov-15 01:33N 69°41' E 018°59'0 0.0
2014-Nov-15 00:33N 69°41' E 018°59'0 0.0
2014-Nov-14 23:33N 69°41' E 018°59'0 0.0
2014-Nov-14 22:33N 69°41' E 018°59'0 0.0
2014-Nov-14 21:33N 69°41' E 018°59'0 0.0
2014-Nov-14 20:33N 69°41' E 018°59'1 0.5
2014-Nov-14 19:33N 69°40' E 018°60'3 2.6
2014-Nov-14 18:34N 69°38' E 018°57'0 0.0
2014-Nov-14 17:33N 69°38' E 018°57'0 0.0
2014-Nov-14 16:33N 69°38' E 018°57'0 0.0
2014-Nov-14 15:33N 69°38' E 018°57'3 2.6
2014-Nov-14 14:33N 69°40' E 018°59'0 0.1
2014-Nov-14 11:08N 69°41' E 018°59'0 0.0
2014-Nov-14 10:14N 69°41' E 018°59'0 0.0
2014-Nov-14 09:30N 69°41' E 018°59'0 0.0
2014-Nov-14 08:32N 69°41' E 018°59'0 0.0
2014-Nov-14 07:33N 69°41' E 018°59'0 0.0
2014-Nov-14 06:33N 69°41' E 018°59'0 0.0
2014-Nov-14 05:28N 69°41' E 018°59'0 0.0
2014-Nov-14 04:33N 69°41' E 018°59'0 0.0
2014-Nov-14 03:33N 69°41' E 018°59'0 0.0
2014-Nov-14 02:33N 69°41' E 018°59'0 0.0
2014-Nov-14 01:33N 69°41' E 018°59'0 0.0
2014-Nov-14 00:33N 69°41' E 018°59'0 0.0
2014-Nov-13 23:33N 69°41' E 018°59'0 0.0
2014-Nov-13 22:33N 69°41' E 018°59'0 0.0
2014-Nov-13 21:33N 69°41' E 018°59'0 0.0
2014-Nov-13 20:33N 69°41' E 018°59'0 0.0
2014-Nov-13 19:33N 69°41' E 018°59'0 0.0
2014-Nov-13 18:33N 69°41' E 018°59'0 0.0
2014-Nov-13 17:32N 69°41' E 018°59'  

Dump ship's entire track history